Location: Huberhof
(49.2050°N, 7.4980°E)
Time: 04:46:26
(UTC+00:00)

Cosmos 2315 Rocket - Pass Details

Date: 29 October 2020
Orbit: 966 x 1002 km, 82.9° (Epoch: 25 November)

Event Time Altitude Azimuth Distance (km) Brightness Sun altitude
Rises 19:02:39 0° 195° (SSW) 3,650 7.1 -28.1°
Reaches altitude 10° 19:05:10 10° 198° (SSW) 2,704 6.4 -28.5°
Maximum altitude 19:11:20 69° 282° (WNW) 1,036 4.2 -29.5°
Drops below altitude 10° 19:17:33 10° 5° (N) 2,720 6.4 -30.5°
Sets 19:20:05 0° 9° (N) 3,673 7.1 -30.9°
